User: anonymous   Login
Location: Exeidioux
(45.6312°N, 1.6819°E)
Time: 18:04:44
(UTC+00:00)
Language:

ERS-2 - Orbit

View from above orbital plane
View from above orbital plane
View from above satellite
View from above satellite

Ground track
Ground track

The orbit data is extracted from the following two-line orbital elements,

1 23560U 95021A   21129.19959987  .00000712  00000-0  33235-4 0  9995
2 23560  98.5520 333.8821 0004328 128.2735 231.8889 15.23884278391718
Epoch (UTC): 09 May 2021 04:47:25
Eccentricity: 0.0004328
inclination: 98.5520°
perigee height: 491 km
apogee height: 497 km
right ascension of ascending node: 333.8821°
argument of perigee: 128.2735°
revolutions per day: 15.23884278
mean anomaly at epoch: 231.8889°
orbit number at epoch: 39171

The dashed part of the orbit path shows where the satellite is in the earth's shadow,  

DLR